User: anonymous   Login
Location: Melbourne
(37.8170°S, 144.9670°E)
Time: 22:29:59
(UTC+11:00)
Language:

ADEOS Rocket - Orbit

View from above orbital plane
View from above orbital plane
View from above satellite
View from above satellite

Ground track
Ground track

The orbit data is extracted from the following two-line orbital elements,

1 24279U 96046C   17328.81150302 -.00000036  00000-0  31528-5 0  9994
2 24279  98.7659 252.9996 0299105 239.4063 180.2876 13.47097497 45872
Epoch (UTC): 24 November 2017 19:28:33
Eccentricity: 0.0299105
inclination: 98.7659°
perigee height: 860 km
apogee height: 1306 km
right ascension of ascending node: 252.9996°
argument of perigee: 239.4063°
revolutions per day: 13.47097497
mean anomaly at epoch: 180.2876°
orbit number at epoch: 4587

The dashed part of the orbit path shows where the satellite is in the earth's shadow,  

DLR